When you browse on this site, cookies collect data to enhance your experience and personalize the content and advertising you see.
Visit our Privacy Policy to learn more. By continuing to use the site, you agree to this use of cookies and data.
  • en Suisse
  • Liste des pays
  • À 7 jours
  • Température de l'eau
  • Carte météo
  • Widgets météo
  • user-avatar
    Se connecter

    Météo par heure à Hamove

    Ce jour, 26 Janvier, Dimanche

    Heure Température Précipitation Vent Pression Humidité
    00:00 0°C° 0 mm 3 m/s 759 mmHg 66%
    01:00 -1°C° 0 mm 3 m/s 759 mmHg 68%
    02:00 -1°C° 0 mm 3 m/s 759 mmHg 70%
    03:00 -1°C° 0 mm 3 m/s 759 mmHg 72%
    04:00 +1°C° 0 mm 2 m/s 759 mmHg 73%
    05:00 +1°C° 0 mm 2 m/s 760 mmHg 74%
    06:00 +1°C° 0 mm 2 m/s 760 mmHg 74%
    07:00 +1°C° 0 mm 2 m/s 760 mmHg 75%
    08:00 +3°C° 0 mm 1 m/s 761 mmHg 75%
    09:00 +4°C° 0 mm 1 m/s 761 mmHg 72%
    10:00 +4°C° 0 mm 1 m/s 762 mmHg 68%
    11:00 +5°C° 0 mm 1 m/s 762 mmHg 64%
    12:00 +6°C° 0 mm 1 m/s 762 mmHg 62%
    13:00 +6°C° 0 mm 1 m/s 761 mmHg 59%
    14:00 +7°C° 0 mm 1 m/s 761 mmHg 57%
    15:00 +6°C° 0 mm 1 m/s 761 mmHg 61%
    16:00 +5°C° 0 mm 0 m/s 761 mmHg 64%
    17:00 +4°C° 0 mm 0 m/s 761 mmHg 68%
    18:00 +4°C° 0 mm 0 m/s 761 mmHg 70%
    19:00 +4°C° 0 mm 1 m/s 761 mmHg 72%
    20:00 +4°C° 0 mm 1 m/s 761 mmHg 74%
    21:00 +4°C° 0 mm 1 m/s 761 mmHg 76%
    22:00 +3°C° 0 mm 1 m/s 761 mmHg 78%
    23:00 +3°C° 0 mm 1 m/s 761 mmHg 80%

    Demain, 27 Janvier, Lundi

    Heure Température Précipitation Vent Pression Humidité
    00:00 +3°C° 0 mm 1 m/s 761 mmHg 81%
    01:00 +2°C° 0 mm 1 m/s 761 mmHg 83%
    02:00 +2°C° 0 mm 1 m/s 761 mmHg 84%
    03:00 +2°C° 0 mm 1 m/s 760 mmHg 84%
    04:00 +2°C° 0 mm 1 m/s 760 mmHg 85%
    05:00 +2°C° 0 mm 1 m/s 760 mmHg 85%
    06:00 +1°C° 0 mm 2 m/s 760 mmHg 85%
    07:00 +1°C° 0 mm 2 m/s 760 mmHg 85%
    08:00 +1°C° 0 mm 2 m/s 760 mmHg 86%
    09:00 +2°C° 0 mm 2 m/s 760 mmHg 80%
    10:00 +3°C° 0 mm 3 m/s 760 mmHg 75%
    11:00 +4°C° 0 mm 3 m/s 760 mmHg 70%
    12:00 +5°C° 0 mm 3 m/s 759 mmHg 69%
    13:00 +7°C° 0 mm 3 m/s 759 mmHg 67%
    14:00 +7°C° 0 mm 3 m/s 758 mmHg 66%
    15:00 +5°C° 0 mm 3 m/s 758 mmHg 70%
    16:00 +6°C° 0 mm 2 m/s 758 mmHg 73%
    17:00 +5°C° 0 mm 2 m/s 757 mmHg 76%
    18:00 +5°C° 0 mm 2 m/s 757 mmHg 80%
    19:00 +3°C° 0 mm 3 m/s 757 mmHg 83%
    20:00 +3°C° 0 mm 3 m/s 757 mmHg 87%
    21:00 +3°C° 0.1 mm 3 m/s 756 mmHg 87%
    22:00 +3°C° 0.1 mm 3 m/s 756 mmHg 88%
    23:00 +3°C° 0.1 mm 3 m/s 756 mmHg 88%

    Après-demain, 28 Janvier, Mardi

    Heure Température Précipitation Vent Pression Humidité
    00:00 +3°C° 0.6 mm 3 m/s 755 mmHg 89%
    01:00 +3°C° 0.6 mm 3 m/s 755 mmHg 90%
    02:00 +3°C° 0.6 mm 3 m/s 754 mmHg 91%
    03:00 +3°C° 0.8 mm 3 m/s 754 mmHg 91%
    04:00 +3°C° 0.8 mm 4 m/s 753 mmHg 92%
    05:00 +3°C° 0.8 mm 4 m/s 753 mmHg 93%
    06:00 +3°C° 0.7 mm 4 m/s 752 mmHg 93%
    07:00 +3°C° 0.7 mm 4 m/s 752 mmHg 94%
    08:00 +3°C° 0.7 mm 4 m/s 752 mmHg 94%
    09:00 +3°C° 1.1 mm 4 m/s 752 mmHg 94%
    10:00 +2°C° 1.1 mm 5 m/s 751 mmHg 94%
    11:00 +2°C° 1.1 mm 5 m/s 751 mmHg 93%
    12:00 +2°C° 1.1 mm 5 m/s 751 mmHg 93%
    13:00 +2°C° 1.1 mm 5 m/s 750 mmHg 93%
    14:00 +2°C° 1.1 mm 5 m/s 750 mmHg 93%
    15:00 +2°C° 0.7 mm 5 m/s 749 mmHg 93%
    16:00 +3°C° 0.7 mm 4 m/s 749 mmHg 94%
    17:00 +3°C° 0.7 mm 4 m/s 749 mmHg 95%
    18:00 +3°C° 0.2 mm 4 m/s 749 mmHg 95%
    19:00 +3°C° 0.2 mm 3 m/s 749 mmHg 95%
    20:00 +3°C° 0.2 mm 3 m/s 749 mmHg 96%
    21:00 +3°C° 0 mm 3 m/s 749 mmHg 96%
    22:00 +3°C° 0 mm 3 m/s 749 mmHg 96%
    23:00 +3°C° 0 mm 3 m/s 749 mmHg 96%

    29 Janvier, Mercredi

    Heure Température Précipitation Vent Pression Humidité
    00:00 +3°C° 0 mm 2 m/s 748 mmHg 95%
    01:00 +3°C° 0 mm 2 m/s 748 mmHg 95%
    02:00 +4°C° 0 mm 1 m/s 748 mmHg 94%
    03:00 +3°C° 0 mm 2 m/s 747 mmHg 94%
    04:00 +3°C° 0 mm 2 m/s 747 mmHg 94%
    05:00 +3°C° 0 mm 2 m/s 747 mmHg 95%
    06:00 +2°C° 0 mm 3 m/s 746 mmHg 94%
    07:00 +3°C° 0 mm 4 m/s 746 mmHg 94%
    08:00 +2°C° 0 mm 5 m/s 746 mmHg 94%
    09:00 +3°C° 0.1 mm 6 m/s 745 mmHg 90%
    10:00 +4°C° 0.1 mm 7 m/s 745 mmHg 86%
    11:00 +6°C° 0.1 mm 8 m/s 744 mmHg 82%
    12:00 +6°C° 0.1 mm 8 m/s 744 mmHg 81%
    13:00 +6°C° 0.1 mm 8 m/s 743 mmHg 79%
    14:00 +8°C° 0.1 mm 7 m/s 742 mmHg 78%
    15:00 +5°C° 0.5 mm 7 m/s 742 mmHg 80%
    16:00 +4°C° 0.5 mm 7 m/s 742 mmHg 83%
    17:00 +3°C° 0.5 mm 7 m/s 742 mmHg 85%
    18:00 +2°C° 0 mm 7 m/s 743 mmHg 83%
    19:00 +1°C° 0 mm 8 m/s 743 mmHg 81%
    20:00 0°C° 0 mm 9 m/s 743 mmHg 80%
    21:00 0°C° 0 mm 9 m/s 744 mmHg 76%
    22:00 0°C° 0 mm 9 m/s 745 mmHg 73%
    23:00 0°C° 0 mm 9 m/s 745 mmHg 69%

    30 Janvier, Jeudi

    Heure Température Précipitation Vent Pression Humidité
    00:00 0°C° 0 mm 8 m/s 746 mmHg 69%
    01:00 0°C° 0 mm 8 m/s 746 mmHg 68%
    02:00 0°C° 0 mm 7 m/s 747 mmHg 67%
    03:00 -1°C° 0 mm 6 m/s 747 mmHg 67%
    04:00 -1°C° 0 mm 6 m/s 747 mmHg 67%
    05:00 0°C° 0 mm 5 m/s 747 mmHg 67%
    06:00 0°C° 0 mm 4 m/s 747 mmHg 68%
    07:00 -1°C° 0 mm 4 m/s 748 mmHg 70%
    08:00 0°C° 0 mm 3 m/s 748 mmHg 72%
    09:00 +1°C° 0.2 mm 3 m/s 748 mmHg 76%
    10:00 0°C° 0.2 mm 4 m/s 748 mmHg 79%
    11:00 0°C° 0.2 mm 4 m/s 748 mmHg 83%
    12:00 +1°C° 0.1 mm 4 m/s 748 mmHg 75%
    13:00 +2°C° 0.1 mm 5 m/s 748 mmHg 67%
    14:00 +3°C° 0.1 mm 5 m/s 748 mmHg 59%
    15:00 +3°C° 0 mm 5 m/s 748 mmHg 60%
    16:00 +2°C° 0 mm 5 m/s 748 mmHg 61%
    17:00 +2°C° 0 mm 6 m/s 749 mmHg 61%
    18:00 +1°C° 0 mm 6 m/s 749 mmHg 70%
    19:00 0°C° 0 mm 7 m/s 749 mmHg 78%
    20:00 0°C° 0 mm 7 m/s 750 mmHg 86%
    21:00 0°C° 0 mm 7 m/s 750 mmHg 82%
    22:00 +1°C° 0 mm 6 m/s 750 mmHg 77%
    23:00 -1°C° 0 mm 6 m/s 751 mmHg 72%

    31 Janvier, Vendredi

    Heure Température Précipitation Vent Pression Humidité
    00:00 -1°C° 0 mm 6 m/s 751 mmHg 72%
    01:00 -1°C° 0 mm 6 m/s 751 mmHg 73%
    02:00 -1°C° 0 mm 6 m/s 751 mmHg 73%
    03:00 -2°C° 0 mm 6 m/s 752 mmHg 74%
    04:00 -2°C° 0 mm 6 m/s 752 mmHg 75%
    05:00 -2°C° 0 mm 6 m/s 752 mmHg 76%
    06:00 -2°C° 0 mm 6 m/s 752 mmHg 77%
    07:00 -2°C° 0 mm 6 m/s 753 mmHg 78%
    08:00 -2°C° 0 mm 6 m/s 753 mmHg 79%
    09:00 -1°C° 0 mm 6 m/s 753 mmHg 74%
    10:00 0°C° 0 mm 7 m/s 753 mmHg 68%
    11:00 +2°C° 0 mm 7 m/s 754 mmHg 62%
    12:00 +2°C° 0 mm 7 m/s 754 mmHg 61%
    13:00 +2°C° 0 mm 7 m/s 753 mmHg 60%
    14:00 +2°C° 0 mm 7 m/s 753 mmHg 59%
    15:00 +2°C° 0 mm 6 m/s 754 mmHg 62%
    16:00 +2°C° 0 mm 5 m/s 754 mmHg 65%
    17:00 +1°C° 0 mm 4 m/s 754 mmHg 68%
    18:00 +1°C° 0 mm 4 m/s 754 mmHg 73%
    19:00 0°C° 0 mm 4 m/s 754 mmHg 79%
    20:00 0°C° 0 mm 4 m/s 755 mmHg 84%
    21:00 0°C° 0 mm 4 m/s 755 mmHg 84%
    22:00 -1°C° 0 mm 4 m/s 755 mmHg 84%
    23:00 -1°C° 0 mm 4 m/s 755 mmHg 85%
    Voir plus